| time (UTC) | temp F | wind direction | speed MPH | gust MPH | rain 1hr in | rain 24hr in | rain mn in | humidity % | barometer mb |
| 20260506013110 | 52 | 50 | 4.0 | 8.0 | 0.00 | 0.00 | 0.00 | 92 | 1016.2 |
| 20260506011601 | 52 | 0 | 0.0 | 3.0 | 0.00 | 0.00 | 0.00 | 92 | 1016.2 |
| 20260506010117 | 52 | 0 | 0.0 | 3.0 | 0.00 | 0.00 | 0.00 | 91 | 1016.1 |
| 20260506004556 | 52 | 0 | 0.0 | 2.0 | 0.00 | 0.00 | 0.00 | 92 | 1016.1 |
| 20260506003052 | 52 | 0 | 0.0 | 3.0 | 0.00 | 0.00 | 0.00 | 92 | 1016.2 |
| 20260506001602 | 52 | 0 | 0.0 | 3.0 | 0.00 | 0.00 | 0.00 | 91 | 1016.2 |
| 20260506000055 | 52 | 150 | 0.0 | 5.0 | 0.00 | 0.00 | 0.00 | 92 | 1016.1 |
| 20260505234553 | 53 | 360 | 1.0 | 7.0 | 0.00 | 0.00 | 0.00 | 90 | 1016.3 |
| 20260505233104 | 52 | 20 | 0.0 | 6.0 | 0.00 | 0.00 | 0.00 | 92 | 1016.3 |
| 20260505231555 | 51 | 22 | 4.0 | 9.0 | 0.00 | 0.00 | 0.00 | 92 | 1016.3 |
| 20260505230058 | 51 | 5 | 4.0 | 8.0 | 0.00 | 0.00 | 0.00 | 92 | 1016.3 |
| 20260505224558 | 52 | 0 | 4.0 | 9.0 | 0.00 | 0.00 | 0.00 | 90 | 1016.4 |
| 20260505223054 | 54 | 96 | 3.0 | 10.0 | 0.00 | 0.00 | 0.00 | 88 | 1016.4 |
| 20260505221556 | 52 | 17 | 4.0 | 9.0 | 0.00 | 0.00 | 0.00 | 87 | 1016.5 |
| 20260505220056 | 53 | 13 | 1.0 | 10.0 | 0.00 | 0.00 | 0.00 | 90 | 1016.4 |
| 20260505214619 | 53 | 0 | 5.0 | 9.0 | 0.00 | 0.00 | 0.00 | 88 | 1016.4 |
| 20260505213102 | 54 | 27 | 1.0 | 4.0 | 0.00 | 0.00 | 0.00 | 87 | 1016.4 |
| 20260505211555 | 53 | 0 | 1.0 | 8.0 | 0.00 | 0.00 | 0.00 | 88 | 1016.4 |
| 20260505210055 | 52 | 0 | 1.0 | 9.0 | 0.00 | 0.00 | 0.00 | 89 | 1016.5 |
| 20260505204554 | 53 | 292 | 3.0 | 8.0 | 0.00 | 0.00 | 0.00 | 87 | 1016.7 |
| 20260505203054 | 53 | 5 | 2.0 | 8.0 | 0.00 | 0.00 | 0.00 | 89 | 1016.6 |
| 20260505201558 | 53 | 312 | 3.0 | 8.0 | 0.00 | 0.00 | 0.00 | 88 | 1016.6 |
| 20260505200055 | 52 | 24 | 3.0 | 8.0 | 0.00 | 0.00 | 0.00 | 91 | 1016.5 |
| 20260505194556 | 51 | 323 | 3.0 | 11.0 | 0.00 | 0.00 | 0.00 | 92 | 1016.6 |
| 20260505193054 | 51 | 319 | 3.0 | 8.0 | 0.00 | 0.00 | 0.00 | 93 | 1016.5 |
| 20260505191604 | 49 | 29 | 4.0 | 8.0 | 0.00 | 0.00 | 0.00 | 94 | 1016.4 |
| 20260505190058 | 50 | 11 | 3.0 | 7.0 | 0.00 | 0.00 | 0.00 | 97 | 1016.4 |
| 20260505184556 | 49 | 324 | 3.0 | 7.0 | 0.00 | 0.00 | 0.00 | 99 | 1016.3 |
| 20260505183113 | 48 | 316 | 1.0 | 6.0 | 0.00 | 0.00 | 0.00 | 100 | 1016.4 |
| 20260505181558 | 48 | 12 | 2.0 | 5.0 | 0.00 | 0.00 | 0.00 | 100 | 1016.2 |
| 20260505180055 | 48 | 0 | 0.0 | 6.0 | 0.00 | 0.00 | 0.00 | 100 | 1016.1 |
| 20260505174556 | 47 | 0 | 4.0 | 8.0 | 0.00 | 0.00 | 0.00 | 100 | 1015.9 |
| 20260505173054 | 47 | 5 | 3.0 | 6.0 | 0.00 | 0.00 | 0.00 | 100 | 1015.9 |
| 20260505171601 | 48 | 360 | 0.0 | 3.0 | 0.00 | 0.00 | 0.00 | 100 | 1015.8 |
| 20260505170055 | 47 | 0 | 0.0 | 3.0 | 0.00 | 0.00 | 0.00 | 99 | 1015.7 |
| 20260505164554 | 45 | 135 | 0.0 | 3.0 | 0.00 | 0.00 | 0.00 | 99 | 1015.6 |
| 20260505163049 | 45 | 0 | 0.0 | 2.0 | 0.00 | 0.00 | 0.00 | 99 | 1015.6 |
| 20260505161615 | 46 | 0 | 0.0 | 2.0 | 0.00 | 0.00 | 0.00 | 100 | 1015.5 |
| 20260505153055 | 44 | 0 | 0.0 | 3.0 | 0.00 | 0.00 | 0.00 | 99 | 1015.4 |
| 20260505151549 | 44 | 152 | 0.0 | 5.0 | 0.00 | 0.00 | 0.00 | 99 | 1015.3 |
| 20260505124612 | 46 | 0 | 0.0 | 2.0 | 0.00 | 0.00 | 0.00 | 99 | 1014.6 |
| 20260505123110 | 46 | 97 | 0.0 | 2.0 | 0.00 | 0.00 | 0.00 | 99 | 1014.4 |
| 20260505121553 | 46 | 0 | 0.0 | 1.0 | 0.00 | 0.00 | 0.00 | 99 | 1014.3 |
| 20260505120111 | 45 | 0 | 0.0 | 0.0 | 0.00 | 0.00 | 0.00 | 99 | 1014.2 |
| 20260505114552 | 45 | 0 | 2.0 | 4.0 | 0.00 | 0.00 | 0.00 | 99 | 1014.1 |
| 20260505113051 | 45 | 155 | 2.0 | 5.0 | 0.00 | 0.00 | 0.00 | 99 | 1014.3 |
| 20260505111556 | 46 | 159 | 3.0 | 5.0 | 0.00 | 0.00 | 0.00 | 99 | 1014.1 |
| 20260505101557 | 47 | 0 | 0.0 | 0.0 | 0.00 | 0.00 | 0.00 | 99 | 1014.3 |
| 20260505100056 | 47 | 0 | 0.0 | 1.0 | 0.00 | 0.00 | 0.00 | 99 | 1014.3 |
| 20260505094556 | 47 | 0 | 0.0 | 1.0 | 0.00 | 0.00 | 0.00 | 99 | 1014.2 |
| 20260505093059 | 48 | 0 | 0.0 | 3.0 | 0.00 | 0.00 | 0.00 | 99 | 1014.1 |
| 20260505091606 | 48 | 178 | 0.0 | 4.0 | 0.00 | 0.00 | 0.00 | 99 | 1014.2 |
| 20260505090055 | 48 | 168 | 2.0 | 7.0 | 0.00 | 0.00 | 0.00 | 99 | 1014.2 |
| 20260505084557 | 48 | 167 | 4.0 | 7.0 | 0.00 | 0.00 | 0.00 | 99 | 1014.1 |
| 20260505083057 | 48 | 171 | 4.0 | 8.0 | 0.00 | 0.00 | 0.00 | 99 | 1014.3 |
| 20260505081554 | 48 | 169 | 4.0 | 7.0 | 0.00 | 0.00 | 0.00 | 99 | 1014.3 |
| 20260505080054 | 48 | 159 | 3.0 | 7.0 | 0.00 | 0.00 | 0.00 | 99 | 1014.3 |
| 20260505074559 | 48 | 167 | 3.0 | 6.0 | 0.00 | 0.00 | 0.00 | 99 | 1014.3 |
| 20260505073105 | 48 | 160 | 3.0 | 6.0 | 0.00 | 0.00 | 0.00 | 99 | 1014.1 |
| 20260505071559 | 49 | 163 | 3.0 | 7.0 | 0.00 | 0.00 | 0.00 | 98 | 1014.2 |
| 20260505070054 | 49 | 151 | 3.0 | 8.0 | 0.00 | 0.00 | 0.00 | 98 | 1014.3 |
| 20260505064551 | 49 | 146 | 5.0 | 8.0 | 0.00 | 0.00 | 0.00 | 98 | 1014.3 |
| 20260505063053 | 49 | 145 | 2.0 | 7.0 | 0.00 | 0.00 | 0.00 | 98 | 1014.3 |
| 20260505061554 | 49 | 155 | 2.0 | 5.0 | 0.00 | 0.00 | 0.00 | 98 | 1014.3 |
| 20260505060051 | 49 | 139 | 2.0 | 6.0 | 0.00 | 0.00 | 0.00 | 98 | 1014.3 |
| 20260505054611 | 50 | 112 | 2.0 | 4.0 | 0.00 | 0.00 | 0.00 | 97 | 1014.4 |
| 20260505053103 | 50 | 0 | 0.0 | 0.0 | 0.00 | 0.00 | 0.00 | 97 | 1014.5 |
| 20260505051553 | 50 | 49 | 0.0 | 3.0 | 0.00 | 0.00 | 0.00 | 97 | 1014.4 |
| 20260505050104 | 50 | 13 | 0.0 | 2.0 | 0.00 | 0.00 | 0.00 | 97 | 1014.4 |
| 20260505041600 | 50 | 302 | 2.0 | 5.0 | 0.00 | 0.00 | 0.00 | 96 | 1014.1 |
| 20260505040057 | 50 | 313 | 2.0 | 6.0 | 0.00 | 0.00 | 0.00 | 95 | 1014.0 |
| 20260505034555 | 51 | 324 | 7.0 | 11.0 | 0.00 | 0.00 | 0.00 | 94 | 1013.8 |
| 20260505033057 | 51 | 360 | 8.0 | 10.0 | 0.00 | 0.00 | 0.00 | 91 | 1013.7 |
| 20260505031607 | 52 | 26 | 6.0 | 10.0 | 0.00 | 0.00 | 0.00 | 88 | 1013.5 |
| 20260505030056 | 54 | 48 | 4.0 | 9.0 | 0.00 | 0.00 | 0.00 | 85 | 1013.3 |
| 20260505024601 | 54 | 87 | 4.0 | 9.0 | 0.00 | 0.00 | 0.00 | 85 | 1013.1 |
| 20260505023116 | 55 | 19 | 4.0 | 9.0 | 0.00 | 0.00 | 0.00 | 83 | 1013.3 |
| 20260505021600 | 55 | 11 | 7.0 | 12.0 | 0.00 | 0.00 | 0.00 | 82 | 1013.1 |
| 20260505020054 | 57 | 5 | 9.0 | 12.0 | 0.00 | 0.00 | 0.00 | 79 | 1013.2 |
| 20260505014601 | 56 | 313 | 8.0 | 11.0 | 0.00 | 0.00 | 0.00 | 80 | 1013.3 |